Orbital Elements at Epoch 2459200.5 (2020-Dec-17.0) TDB
Reference: JPL 16 (heliocentric ecliptic J2000)
Element | Value | Uncertainty (1-sigma) | Units |
e | .148249282529436 | 3.9852e-08 | |
a | 2.250219867440845 | 7.9687e-09 | au |
q | 1.916626386559257 | 8.9442e-08 | au |
i | 5.210572982543531 | 4.7627e-06 | deg |
node | 210.7920420320711 | 4.2949e-05 | deg |
peri | 119.0813906478157 | 4.5608e-05 | deg |
M | 146.7093429989594 | 1.392e-05 | deg |
tp | 2458698.051989967012 (2019-Aug-02.55198997) | 4.7811e-05 | TDB |
period | 1232.922729489414 3.38 | 6.5492e-06 1.793e-08 | d yr |
n | .2919891014979387 | 1.551e-09 | deg/d |
Q | 2.583813348322433 | 9.1501e-09 | au |
|
| | Orbit Determination Parameters
Additional Information
|